Overview Statistics Trail Chart Weather Telemetry Raw packets
 

This is the latest recevied weather packets stored in our database for station/object EA1HTW-13. If no packets are shown the sender has not sent any weather packets the latest 10 day(s).

<< 56 57 58 59 60 61 62 >>
Time Temp. Humidity Pressure Rain* Wind** Luminosity Snow
1777223302 23.33° C 45% 1009.9 hPa 0 mm - - -
1777222762 23.89° C 43% 1010 hPa 0 mm - - -
1777222223 25° C 41% 1010.1 hPa 0 mm - - -
1777221682 26.67° C 39% 1010 hPa 0 mm - - -
1777221142 27.78° C 34% 1010.1 hPa 0 mm - - -
1777220603 28.33° C 34% 1009.8 hPa 0 mm - - -
1777220064 28.89° C 35% 1009.9 hPa 0 mm - - -
1777219522 28.33° C 37% 1009.8 hPa 0 mm - - -
1777218983 27.22° C 41% 1009.7 hPa 0 mm - - -
1777218444 27.22° C 41% 1009.9 hPa 0 mm - - -
1777217904 27.22° C 40% 1009.8 hPa 0 mm - - -
1777217363 27.22° C 42% 1009.9 hPa 0 mm - - -
1777216822 27.22° C 42% 1010 hPa 0 mm - - -
1777216281 26.67° C 43% 1010 hPa 0 mm - - -
1777215742 26.67° C 43% 1010.3 hPa 0 mm - - -
1777215201 25.56° C 42% 1010.3 hPa 0 mm - - -
1777214662 26.11° C 43% 1010.2 hPa 0 mm - - -
1777214121 26.11° C 43% 1010.2 hPa 0 mm - - -
1777213583 26.11° C 42% 1010.2 hPa 0 mm - - -
1777213042 26.67° C 44% 1010.5 hPa 0 mm - - -
1777212503 26.67° C 45% 1010.5 hPa 0 mm - - -
1777211961 25.56° C 48% 1010.7 hPa 0 mm - - -
1777211422 24.44° C 47% 1010.6 hPa 0 mm - - -
1777210883 24.44° C 46% 1010.8 hPa 0 mm - - -
1777210342 25° C 48% 1010.7 hPa 0 mm - - -

* Rain latest hour (hover to see other rain measurements)
** Current wind speed in m/s (hover to see current wind gust speed)